owner,sensor,date,latitude,longitude,vertical_datum,wind_speed,wind_to_direction,wind_speed_of_gust,qcFlag 
TCOON,ioos:station:TCOON:524:1,2009-04-01T00:00:00Z,29.8672,-93.9310,0.0,4.9,326.0,7.3,'11111222,11111222,11111222' 
TCOON,ioos:station:TCOON:524:1,2009-04-01T00:06:00Z,29.8672,-93.9310,0.0,3.6,329.0,5.1,'11111222,11111222,11111222' 
TCOON,ioos:station:TCOON:524:1,2009-04-01T00:12:00Z,29.8672,-93.9310,0.0,3.2,332.0,4.8,'11111222,11111222,11111222' 
TCOON,ioos:station:TCOON:524:1,2009-04-01T00:18:00Z,29.8672,-93.9310,0.0,2.6,330.0,3.1,'11111222,11111222,11111222' 
TCOON,ioos:station:TCOON:524:1,2009-04-01T00:24:00Z,29.8672,-93.9310,0.0,2.9,344.0,4.6,'11111222,11111222,11111222' 
TCOON,ioos:station:TCOON:524:1,2009-04-01T00:30:00Z,29.8672,-93.9310,0.0,3.6,348.0,4.5,'11111222,11111222,11111222' 
TCOON,ioos:station:TCOON:524:1,2009-04-01T00:36:00Z,29.8672,-93.9310,0.0,3.7,348.0,4.6,'11111222,11111222,11111222' 
TCOON,ioos:station:TCOON:524:1,2009-04-01T00:42:00Z,29.8672,-93.9310,0.0,3.3,345.0,4.1,'11111222,11111222,11111222' 
TCOON,ioos:station:TCOON:524:1,2009-04-01T00:48:00Z,29.8672,-93.9310,0.0,3.5,347.0,4.0,'11111222,11111222,11111222' 
TCOON,ioos:station:TCOON:524:1,2009-04-01T00:54:00Z,29.8672,-93.9310,0.0,3.7,345.0,4.3,'11111222,11111222,11111222' 
TCOON,ioos:station:TCOON:524:1,2009-04-01T01:00:00Z,29.8672,-93.9310,0.0,4.2,353.0,5.2,'11111222,11111222,11111222' 
TCOON,ioos:station:TCOON:524:1,2009-04-01T02:06:00Z,29.8672,-93.9310,0.0,2.5,356.0,3.1,'11111222,11111222,11111222' 
TCOON,ioos:station:TCOON:524:1,2009-04-01T02:12:00Z,29.8672,-93.9310,0.0,2.3,2.0,2.7,'11111222,11111222,11111222' 
TCOON,ioos:station:TCOON:524:1,2009-04-01T02:18:00Z,29.8672,-93.9310,0.0,2.5,4.0,3.1,'11111222,11111222,11111222' 
TCOON,ioos:station:TCOON:524:1,2009-04-01T02:24:00Z,29.8672,-93.9310,0.0,3.6,357.0,4.5,'11111222,11111222,11111222' 
TCOON,ioos:station:TCOON:524:1,2009-04-01T02:30:00Z,29.8672,-93.9310,0.0,3.6,355.0,4.3,'11111222,11111222,11111222' 
TCOON,ioos:station:TCOON:524:1,2009-04-01T02:36:00Z,29.8672,-93.9310,0.0,3.6,357.0,4.6,'11111222,11111222,11111222' 
TCOON,ioos:station:TCOON:524:1,2009-04-01T02:42:00Z,29.8672,-93.9310,0.0,2.8,358.0,3.3,'11111222,11111222,11111222' 
TCOON,ioos:station:TCOON:524:1,2009-04-01T02:48:00Z,29.8672,-93.9310,0.0,2.3,1.0,2.7,'11111222,11111222,11111222' 
TCOON,ioos:station:TCOON:524:1,2009-04-01T02:54:00Z,29.8672,-93.9310,0.0,2.5,2.0,3.0,'11111222,11111222,11111222' 
TCOON,ioos:station:TCOON:524:1,2009-04-01T03:00:00Z,29.8672,-93.9310,0.0,2.8,358.0,3.5,'11111222,11111222,11111222' 
TCOON,ioos:station:TCOON:524:1,2009-04-01T03:06:00Z,29.8672,-93.9310,0.0,2.2,360.0,2.7,'11111222,11144222,11111222' 
TCOON,ioos:station:TCOON:524:1,2009-04-01T03:12:00Z,29.8672,-93.9310,0.0,2.3,2.0,2.6,'11111222,11111222,11111222' 
TCOON,ioos:station:TCOON:524:1,2009-04-01T03:18:00Z,29.8672,-93.9310,0.0,1.7,3.0,2.0,'11111222,11111222,11111222' 
TCOON,ioos:station:TCOON:524:1,2009-04-01T03:24:00Z,29.8672,-93.9310,0.0,2.3,2.0,2.8,'11111222,11111222,11111222' 
TCOON,ioos:station:TCOON:524:1,2009-04-01T03:30:00Z,29.8672,-93.9310,0.0,2.3,4.0,2.8,'11111222,11111222,11111222' 
TCOON,ioos:station:TCOON:524:1,2009-04-01T03:36:00Z,29.8672,-93.9310,0.0,1.0,10.0,2.2,'11111222,11111222,11111222' 
TCOON,ioos:station:TCOON:524:1,2009-04-01T03:42:00Z,29.8672,-93.9310,0.0,2.0,3.0,2.7,'11111222,11111222,11111222' 
TCOON,ioos:station:TCOON:524:1,2009-04-01T03:48:00Z,29.8672,-93.9310,0.0,3.2,4.0,4.3,'11111222,11111222,11111222' 
TCOON,ioos:station:TCOON:524:1,2009-04-01T03:54:00Z,29.8672,-93.9310,0.0,2.7,356.0,3.2,'11111222,11111222,11111222' 
TCOON,ioos:station:TCOON:524:1,2009-04-01T04:00:00Z,29.8672,-93.9310,0.0,2.8,351.0,3.5,'11111222,11111222,11111222' 
TCOON,ioos:station:TCOON:524:1,2009-04-01T04:06:00Z,29.8672,-93.9310,0.0,2.7,357.0,3.1,'11111222,11111222,11111222' 
TCOON,ioos:station:TCOON:524:1,2009-04-01T04:12:00Z,29.8672,-93.9310,0.0,2.6,351.0,3.2,'11111222,11111222,11111222' 
TCOON,ioos:station:TCOON:524:1,2009-04-01T04:18:00Z,29.8672,-93.9310,0.0,3.2,357.0,3.8,'11111222,11111222,11111222' 
TCOON,ioos:station:TCOON:524:1,2009-04-01T04:24:00Z,29.8672,-93.9310,0.0,2.9,358.0,3.4,'11111222,11111222,11111222' 
TCOON,ioos:station:TCOON:524:1,2009-04-01T04:30:00Z,29.8672,-93.9310,0.0,3.1,356.0,3.7,'11111222,11111222,11111222' 
TCOON,ioos:station:TCOON:524:1,2009-04-01T04:36:00Z,29.8672,-93.9310,0.0,3.2,359.0,3.7,'11111222,11111222,11111222' 
TCOON,ioos:station:TCOON:524:1,2009-04-01T04:42:00Z,29.8672,-93.9310,0.0,3.5,358.0,4.5,'11111222,11111222,11111222' 
TCOON,ioos:station:TCOON:524:1,2009-04-01T04:48:00Z,29.8672,-93.9310,0.0,3.4,356.0,4.0,'11111222,11111222,11111222' 
TCOON,ioos:station:TCOON:524:1,2009-04-01T04:54:00Z,29.8672,-93.9310,0.0,3.1,358.0,3.6,'11111222,11111222,11111222' 
TCOON,ioos:station:TCOON:524:1,2009-04-01T05:00:00Z,29.8672,-93.9310,0.0,2.8,353.0,3.2,'11111222,11111222,11111222' 
TCOON,ioos:station:TCOON:524:1,2009-04-01T05:06:00Z,29.8672,-93.9310,0.0,2.8,355.0,3.3,'11111222,11111222,11111222' 
TCOON,ioos:station:TCOON:524:1,2009-04-01T05:12:00Z,29.8672,-93.9310,0.0,3.0,349.0,3.4,'11111222,11111222,11111222' 
TCOON,ioos:station:TCOON:524:1,2009-04-01T05:18:00Z,29.8672,-93.9310,0.0,3.2,355.0,3.9,'11111222,11111222,11111222' 
TCOON,ioos:station:TCOON:524:1,2009-04-01T05:24:00Z,29.8672,-93.9310,0.0,4.1,358.0,4.6,'11111222,11111222,11111222' 
TCOON,ioos:station:TCOON:524:1,2009-04-01T05:30:00Z,29.8672,-93.9310,0.0,4.0,358.0,5.0,'11111222,11111222,11111222' 
TCOON,ioos:station:TCOON:524:1,2009-04-01T05:36:00Z,29.8672,-93.9310,0.0,3.8,360.0,5.2,'11111222,11144222,11111222' 
TCOON,ioos:station:TCOON:524:1,2009-04-01T05:42:00Z,29.8672,-93.9310,0.0,3.5,3.0,4.2,'11111222,11111222,11111222' 
TCOON,ioos:station:TCOON:524:1,2009-04-01T05:48:00Z,29.8672,-93.9310,0.0,3.9,1.0,4.8,'11111222,11111222,11111222' 
TCOON,ioos:station:TCOON:524:1,2009-04-01T05:54:00Z,29.8672,-93.9310,0.0,3.7,360.0,4.3,'11111222,11144222,11111222' 
TCOON,ioos:station:TCOON:524:1,2009-04-01T06:00:00Z,29.8672,-93.9310,0.0,4.0,1.0,5.1,'11111222,11111222,11111222' 
TCOON,ioos:station:TCOON:524:1,2009-04-01T06:06:00Z,29.8672,-93.9310,0.0,4.6,360.0,5.5,'11111222,11144222,11111222' 
TCOON,ioos:station:TCOON:524:1,2009-04-01T06:12:00Z,29.8672,-93.9310,0.0,4.6,3.0,5.7,'11111222,11111222,11111222' 
TCOON,ioos:station:TCOON:524:1,2009-04-01T06:18:00Z,29.8672,-93.9310,0.0,4.6,3.0,5.7,'11111222,11111222,11111222' 
TCOON,ioos:station:TCOON:524:1,2009-04-01T06:24:00Z,29.8672,-93.9310,0.0,5.2,3.0,6.7,'11111222,11111222,11111222' 
TCOON,ioos:station:TCOON:524:1,2009-04-01T06:30:00Z,29.8672,-93.9310,0.0,4.3,9.0,6.0,'11111222,11111222,11111222' 
TCOON,ioos:station:TCOON:524:1,2009-04-01T06:36:00Z,29.8672,-93.9310,0.0,5.2,4.0,6.9,'11111222,11111222,11111222' 
TCOON,ioos:station:TCOON:524:1,2009-04-01T06:42:00Z,29.8672,-93.9310,0.0,4.9,4.0,6.6,'11111222,11111222,11111222' 
TCOON,ioos:station:TCOON:524:1,2009-04-01T06:48:00Z,29.8672,-93.9310,0.0,4.6,4.0,5.9,'11111222,11111222,11111222' 
TCOON,ioos:station:TCOON:524:1,2009-04-01T06:54:00Z,29.8672,-93.9310,0.0,4.8,3.0,5.8,'11111222,11111222,11111222' 
TCOON,ioos:station:TCOON:524:1,2009-04-01T07:00:00Z,29.8672,-93.9310,0.0,5.6,3.0,8.0,'11111222,11111222,11111222' 
TCOON,ioos:station:TCOON:524:1,2009-04-01T07:06:00Z,29.8672,-93.9310,0.0,5.4,3.0,7.4,'11111222,11111222,11111222' 
TCOON,ioos:station:TCOON:524:1,2009-04-01T07:12:00Z,29.8672,-93.9310,0.0,5.9,6.0,7.4,'11111222,11111222,11111222' 
TCOON,ioos:station:TCOON:524:1,2009-04-01T07:18:00Z,29.8672,-93.9310,0.0,5.0,9.0,7.5,'11111222,11111222,11111222' 
TCOON,ioos:station:TCOON:524:1,2009-04-01T07:24:00Z,29.8672,-93.9310,0.0,5.2,10.0,7.2,'11111222,11111222,11111222' 
TCOON,ioos:station:TCOON:524:1,2009-04-01T07:30:00Z,29.8672,-93.9310,0.0,4.8,7.0,6.8,'11111222,11111222,11111222' 
TCOON,ioos:station:TCOON:524:1,2009-04-01T07:36:00Z,29.8672,-93.9310,0.0,4.5,9.0,6.6,'11111222,11111222,11111222' 
TCOON,ioos:station:TCOON:524:1,2009-04-01T07:42:00Z,29.8672,-93.9310,0.0,2.6,17.0,5.3,'11111222,11111222,11111222' 
TCOON,ioos:station:TCOON:524:1,2009-04-01T07:48:00Z,29.8672,-93.9310,0.0,3.5,12.0,5.7,'11111222,11111222,11111222' 
TCOON,ioos:station:TCOON:524:1,2009-04-01T07:54:00Z,29.8672,-93.9310,0.0,3.2,16.0,5.7,'11111222,11111222,11111222' 
TCOON,ioos:station:TCOON:524:1,2009-04-01T08:00:00Z,29.8672,-93.9310,0.0,2.0,22.0,5.9,'11111222,11111222,11111222' 
TCOON,ioos:station:TCOON:524:1,2009-04-01T08:06:00Z,29.8672,-93.9310,0.0,1.8,20.0,4.1,'11111222,11111222,11111222' 
TCOON,ioos:station:TCOON:524:1,2009-04-01T08:12:00Z,29.8672,-93.9310,0.0,1.8,23.0,3.7,'11111222,11111222,11111222' 
TCOON,ioos:station:TCOON:524:1,2009-04-01T08:18:00Z,29.8672,-93.9310,0.0,1.6,28.0,4.1,'11111222,11111222,11111222' 
TCOON,ioos:station:TCOON:524:1,2009-04-01T08:24:00Z,29.8672,-93.9310,0.0,0.5,28.0,2.5,'11111222,11111222,11111222' 
TCOON,ioos:station:TCOON:524:1,2009-04-01T08:30:00Z,29.8672,-93.9310,0.0,1.5,32.0,3.5,'11111222,11111222,11111222' 
TCOON,ioos:station:TCOON:524:1,2009-04-01T08:36:00Z,29.8672,-93.9310,0.0,1.8,34.0,3.7,'11111222,11111222,11111222' 
TCOON,ioos:station:TCOON:524:1,2009-04-01T08:42:00Z,29.8672,-93.9310,0.0,0.7,34.0,2.7,'11111222,11111222,11111222' 
TCOON,ioos:station:TCOON:524:1,2009-04-01T08:48:00Z,29.8672,-93.9310,0.0,0.8,26.0,2.4,'11111222,11111222,11111222' 
TCOON,ioos:station:TCOON:524:1,2009-04-01T08:54:00Z,29.8672,-93.9310,0.0,1.3,32.0,2.7,'11111222,11111222,11111222' 
TCOON,ioos:station:TCOON:524:1,2009-04-01T09:00:00Z,29.8672,-93.9310,0.0,1.4,30.0,3.1,'11111222,11111222,11111222' 
TCOON,ioos:station:TCOON:524:1,2009-04-01T09:06:00Z,29.8672,-93.9310,0.0,1.2,27.0,3.1,'11111222,11111222,11111222' 
TCOON,ioos:station:TCOON:524:1,2009-04-01T09:12:00Z,29.8672,-93.9310,0.0,1.6,30.0,3.9,'11111222,11111222,11111222' 
TCOON,ioos:station:TCOON:524:1,2009-04-01T09:18:00Z,29.8672,-93.9310,0.0,1.5,27.0,3.5,'11111222,11111222,11111222' 
TCOON,ioos:station:TCOON:524:1,2009-04-01T09:24:00Z,29.8672,-93.9310,0.0,1.5,31.0,3.0,'11111222,11111222,11111222' 
TCOON,ioos:station:TCOON:524:1,2009-04-01T09:30:00Z,29.8672,-93.9310,0.0,1.6,41.0,3.0,'11111222,11111222,11111222' 
TCOON,ioos:station:TCOON:524:1,2009-04-01T09:36:00Z,29.8672,-93.9310,0.0,1.9,44.0,3.2,'11111222,11111222,11111222' 
TCOON,ioos:station:TCOON:524:1,2009-04-01T09:42:00Z,29.8672,-93.9310,0.0,2.8,42.0,4.9,'11111222,11111222,11111222' 
TCOON,ioos:station:TCOON:524:1,2009-04-01T09:48:00Z,29.8672,-93.9310,0.0,2.4,34.0,4.3,'11111222,11111222,11111222' 
TCOON,ioos:station:TCOON:524:1,2009-04-01T09:54:00Z,29.8672,-93.9310,0.0,2.7,37.0,6.0,'11111222,11111222,11111222' 
TCOON,ioos:station:TCOON:524:1,2009-04-01T10:00:00Z,29.8672,-93.9310,0.0,1.8,38.0,5.2,'11111222,11111222,11111222' 
TCOON,ioos:station:TCOON:524:1,2009-04-01T10:06:00Z,29.8672,-93.9310,0.0,2.9,40.0,6.5,'11111222,11111222,11111222' 
TCOON,ioos:station:TCOON:524:1,2009-04-01T10:12:00Z,29.8672,-93.9310,0.0,2.2,38.0,4.2,'11111222,11111222,11111222' 
TCOON,ioos:station:TCOON:524:1,2009-04-01T10:18:00Z,29.8672,-93.9310,0.0,1.9,38.0,3.4,'11111222,11111222,11111222' 
TCOON,ioos:station:TCOON:524:1,2009-04-01T10:24:00Z,29.8672,-93.9310,0.0,2.8,40.0,6.6,'11111222,11111222,11111222' 
TCOON,ioos:station:TCOON:524:1,2009-04-01T10:30:00Z,29.8672,-93.9310,0.0,3.1,39.0,6.3,'11111222,11111222,11111222' 
TCOON,ioos:station:TCOON:524:1,2009-04-01T10:36:00Z,29.8672,-93.9310,0.0,2.1,35.0,4.2,'11111222,11111222,11111222' 
TCOON,ioos:station:TCOON:524:1,2009-04-01T10:42:00Z,29.8672,-93.9310,0.0,1.7,30.0,3.6,'11111222,11111222,11111222' 
TCOON,ioos:station:TCOON:524:1,2009-04-01T10:48:00Z,29.8672,-93.9310,0.0,2.3,40.0,4.6,'11111222,11111222,11111222' 
TCOON,ioos:station:TCOON:524:1,2009-04-01T10:54:00Z,29.8672,-93.9310,0.0,1.5,37.0,3.5,'11111222,11111222,11111222' 
TCOON,ioos:station:TCOON:524:1,2009-04-01T11:00:00Z,29.8672,-93.9310,0.0,2.3,39.0,4.8,'11111222,11111222,11111222' 
TCOON,ioos:station:TCOON:524:1,2009-04-01T11:06:00Z,29.8672,-93.9310,0.0,2.1,34.0,5.3,'11111222,11111222,11111222' 
TCOON,ioos:station:TCOON:524:1,2009-04-01T11:12:00Z,29.8672,-93.9310,0.0,2.6,37.0,4.5,'11111222,11111222,11111222' 
TCOON,ioos:station:TCOON:524:1,2009-04-01T11:18:00Z,29.8672,-93.9310,0.0,2.7,35.0,5.2,'11111222,11111222,11111222' 
TCOON,ioos:station:TCOON:524:1,2009-04-01T11:24:00Z,29.8672,-93.9310,0.0,1.7,29.0,3.8,'11111222,11111222,11111222' 
TCOON,ioos:station:TCOON:524:1,2009-04-01T11:30:00Z,29.8672,-93.9310,0.0,3.2,34.0,6.4,'11111222,11111222,11111222' 
TCOON,ioos:station:TCOON:524:1,2009-04-01T11:36:00Z,29.8672,-93.9310,0.0,2.0,32.0,4.5,'11111222,11111222,11111222' 
TCOON,ioos:station:TCOON:524:1,2009-04-01T11:42:00Z,29.8672,-93.9310,0.0,2.3,38.0,4.4,'11111222,11111222,11111222' 
TCOON,ioos:station:TCOON:524:1,2009-04-01T11:48:00Z,29.8672,-93.9310,0.0,2.0,31.0,5.6,'11111222,11111222,11111222' 
TCOON,ioos:station:TCOON:524:1,2009-04-01T11:54:00Z,29.8672,-93.9310,0.0,1.9,36.0,4.0,'11111222,11111222,11111222' 
TCOON,ioos:station:TCOON:524:1,2009-04-01T12:00:00Z,29.8672,-93.9310,0.0,1.7,34.0,4.2,'11111222,11111222,11111222' 
TCOON,ioos:station:TCOON:524:1,2009-04-01T12:06:00Z,29.8672,-93.9310,0.0,2.3,39.0,4.2,'11111222,11111222,11111222' 
TCOON,ioos:station:TCOON:524:1,2009-04-01T12:12:00Z,29.8672,-93.9310,0.0,2.9,46.0,5.5,'11111222,11111222,11111222' 
TCOON,ioos:station:TCOON:524:1,2009-04-01T12:18:00Z,29.8672,-93.9310,0.0,3.0,45.0,5.0,'11111222,11111222,11111222' 
TCOON,ioos:station:TCOON:524:1,2009-04-01T12:24:00Z,29.8672,-93.9310,0.0,3.0,43.0,5.3,'11111222,11111222,11111222' 
TCOON,ioos:station:TCOON:524:1,2009-04-01T12:30:00Z,29.8672,-93.9310,0.0,3.1,43.0,5.1,'11111222,11111222,11111222' 
TCOON,ioos:station:TCOON:524:1,2009-04-01T12:36:00Z,29.8672,-93.9310,0.0,4.9,53.0,6.9,'11111222,11111222,11111222' 
TCOON,ioos:station:TCOON:524:1,2009-04-01T12:42:00Z,29.8672,-93.9310,0.0,3.5,50.0,5.7,'11111222,11111222,11111222' 
TCOON,ioos:station:TCOON:524:1,2009-04-01T12:48:00Z,29.8672,-93.9310,0.0,5.1,49.0,7.3,'11111222,11111222,11111222' 
TCOON,ioos:station:TCOON:524:1,2009-04-01T12:54:00Z,29.8672,-93.9310,0.0,3.5,50.0,5.6,'11111222,11111222,11111222' 
TCOON,ioos:station:TCOON:524:1,2009-04-01T13:00:00Z,29.8672,-93.9310,0.0,5.1,55.0,7.8,'11111222,11111222,11111222' 
TCOON,ioos:station:TCOON:524:1,2009-04-01T13:06:00Z,29.8672,-93.9310,0.0,6.3,58.0,8.6,'11111222,11111222,11111222' 
TCOON,ioos:station:TCOON:524:1,2009-04-01T13:12:00Z,29.8672,-93.9310,0.0,4.8,58.0,6.6,'11111222,11111222,11111222' 
TCOON,ioos:station:TCOON:524:1,2009-04-01T13:18:00Z,29.8672,-93.9310,0.0,5.3,60.0,8.1,'11111222,11111222,11111222' 
TCOON,ioos:station:TCOON:524:1,2009-04-01T13:24:00Z,29.8672,-93.9310,0.0,5.3,61.0,7.4,'11111222,11111222,11111222' 
TCOON,ioos:station:TCOON:524:1,2009-04-01T13:30:00Z,29.8672,-93.9310,0.0,5.4,61.0,7.1,'11111222,11111222,11111222' 
TCOON,ioos:station:TCOON:524:1,2009-04-01T13:36:00Z,29.8672,-93.9310,0.0,4.0,65.0,6.5,'11111222,11111222,11111222' 
TCOON,ioos:station:TCOON:524:1,2009-04-01T13:42:00Z,29.8672,-93.9310,0.0,4.3,64.0,6.0,'11111222,11111222,11111222' 
TCOON,ioos:station:TCOON:524:1,2009-04-01T13:48:00Z,29.8672,-93.9310,0.0,5.4,73.0,7.9,'11111222,11111222,11111222' 
TCOON,ioos:station:TCOON:524:1,2009-04-01T13:54:00Z,29.8672,-93.9310,0.0,4.9,72.0,6.6,'11111222,11111222,11111222' 
TCOON,ioos:station:TCOON:524:1,2009-04-01T14:00:00Z,29.8672,-93.9310,0.0,4.7,74.0,7.1,'11111222,11111222,11111222' 
TCOON,ioos:station:TCOON:524:1,2009-04-01T14:06:00Z,29.8672,-93.9310,0.0,5.5,75.0,7.5,'11111222,11111222,11111222' 
TCOON,ioos:station:TCOON:524:1,2009-04-01T14:12:00Z,29.8672,-93.9310,0.0,5.2,78.0,7.2,'11111222,11111222,11111222' 
TCOON,ioos:station:TCOON:524:1,2009-04-01T14:18:00Z,29.8672,-93.9310,0.0,5.7,70.0,8.8,'11111222,11111222,11111222' 
TCOON,ioos:station:TCOON:524:1,2009-04-01T14:24:00Z,29.8672,-93.9310,0.0,4.9,73.0,8.0,'11111222,11111222,11111222' 
TCOON,ioos:station:TCOON:524:1,2009-04-01T14:30:00Z,29.8672,-93.9310,0.0,5.5,82.0,9.7,'11111222,11111222,11111222' 
TCOON,ioos:station:TCOON:524:1,2009-04-01T14:36:00Z,29.8672,-93.9310,0.0,6.9,78.0,9.3,'11111222,11111222,11111222' 
TCOON,ioos:station:TCOON:524:1,2009-04-01T14:42:00Z,29.8672,-93.9310,0.0,8.1,82.0,11.8,'11111222,11111222,11111222' 
TCOON,ioos:station:TCOON:524:1,2009-04-01T14:48:00Z,29.8672,-93.9310,0.0,6.3,78.0,9.6,'11111222,11111222,11111222' 
TCOON,ioos:station:TCOON:524:1,2009-04-01T14:54:00Z,29.8672,-93.9310,0.0,7.2,82.0,9.2,'11111222,11111222,11111222' 
TCOON,ioos:station:TCOON:524:1,2009-04-01T15:00:00Z,29.8672,-93.9310,0.0,6.2,80.0,8.4,'11111222,11111222,11111222' 
TCOON,ioos:station:TCOON:524:1,2009-04-01T15:06:00Z,29.8672,-93.9310,0.0,6.1,76.0,8.8,'11111222,11111222,11111222' 
TCOON,ioos:station:TCOON:524:1,2009-04-01T15:12:00Z,29.8672,-93.9310,0.0,5.6,76.0,8.7,'11111222,11111222,11111222' 
TCOON,ioos:station:TCOON:524:1,2009-04-01T15:18:00Z,29.8672,-93.9310,0.0,5.5,71.0,8.6,'11111222,11111222,11111222' 
TCOON,ioos:station:TCOON:524:1,2009-04-01T15:24:00Z,29.8672,-93.9310,0.0,5.0,77.0,8.8,'11111222,11111222,11111222' 
TCOON,ioos:station:TCOON:524:1,2009-04-01T15:30:00Z,29.8672,-93.9310,0.0,6.5,78.0,8.7,'11111222,11111222,11111222' 
TCOON,ioos:station:TCOON:524:1,2009-04-01T15:36:00Z,29.8672,-93.9310,0.0,6.4,82.0,9.5,'11111222,11111222,11111222' 
TCOON,ioos:station:TCOON:524:1,2009-04-01T15:42:00Z,29.8672,-93.9310,0.0,5.2,72.0,7.9,'11111222,11111222,11111222' 
TCOON,ioos:station:TCOON:524:1,2009-04-01T15:48:00Z,29.8672,-93.9310,0.0,4.9,75.0,8.0,'11111222,11111222,11111222' 
TCOON,ioos:station:TCOON:524:1,2009-04-01T15:54:00Z,29.8672,-93.9310,0.0,4.7,78.0,7.1,'11111222,11111222,11111222' 
TCOON,ioos:station:TCOON:524:1,2009-04-01T16:00:00Z,29.8672,-93.9310,0.0,5.3,76.0,6.9,'11111222,11111222,11111222' 
TCOON,ioos:station:TCOON:524:1,2009-04-01T16:06:00Z,29.8672,-93.9310,0.0,4.8,77.0,7.1,'11111222,11111222,11111222' 
TCOON,ioos:station:TCOON:524:1,2009-04-01T16:12:00Z,29.8672,-93.9310,0.0,4.9,75.0,6.5,'11111222,11111222,11111222' 
TCOON,ioos:station:TCOON:524:1,2009-04-01T16:18:00Z,29.8672,-93.9310,0.0,4.4,81.0,6.6,'11111222,11111222,11111222' 
TCOON,ioos:station:TCOON:524:1,2009-04-01T16:24:00Z,29.8672,-93.9310,0.0,3.9,81.0,5.6,'11111222,11111222,11111222' 
TCOON,ioos:station:TCOON:524:1,2009-04-01T16:30:00Z,29.8672,-93.9310,0.0,5.0,89.0,7.1,'11111222,11111222,11111222' 
TCOON,ioos:station:TCOON:524:1,2009-04-01T16:36:00Z,29.8672,-93.9310,0.0,5.4,90.0,6.8,'11111222,11111222,11111222' 
TCOON,ioos:station:TCOON:524:1,2009-04-01T16:42:00Z,29.8672,-93.9310,0.0,4.8,90.0,7.8,'11111222,11111222,11111222' 
TCOON,ioos:station:TCOON:524:1,2009-04-01T16:48:00Z,29.8672,-93.9310,0.0,5.5,92.0,6.9,'11111222,11111222,11111222' 
TCOON,ioos:station:TCOON:524:1,2009-04-01T16:54:00Z,29.8672,-93.9310,0.0,5.1,95.0,7.6,'11111222,11111222,11111222' 
TCOON,ioos:station:TCOON:524:1,2009-04-01T17:00:00Z,29.8672,-93.9310,0.0,4.7,89.0,6.1,'11111222,11111222,11111222' 
TCOON,ioos:station:TCOON:524:1,2009-04-01T17:06:00Z,29.8672,-93.9310,0.0,4.7,92.0,6.3,'11111222,11111222,11111222' 
TCOON,ioos:station:TCOON:524:1,2009-04-01T17:12:00Z,29.8672,-93.9310,0.0,4.1,94.0,5.4,'11111222,11111222,11111222' 
TCOON,ioos:station:TCOON:524:1,2009-04-01T17:18:00Z,29.8672,-93.9310,0.0,4.2,95.0,6.0,'11111222,11111222,11111222' 
TCOON,ioos:station:TCOON:524:1,2009-04-01T17:24:00Z,29.8672,-93.9310,0.0,5.0,88.0,6.1,'11111222,11111222,11111222' 
TCOON,ioos:station:TCOON:524:1,2009-04-01T17:30:00Z,29.8672,-93.9310,0.0,3.9,104.0,6.0,'11111222,11111222,11111222' 
TCOON,ioos:station:TCOON:524:1,2009-04-01T17:36:00Z,29.8672,-93.9310,0.0,5.6,90.0,6.5,'11111222,11111222,11111222' 
TCOON,ioos:station:TCOON:524:1,2009-04-01T17:42:00Z,29.8672,-93.9310,0.0,3.9,105.0,5.7,'11111222,11111222,11111222' 
TCOON,ioos:station:TCOON:524:1,2009-04-01T17:48:00Z,29.8672,-93.9310,0.0,3.9,108.0,6.0,'11111222,11111222,11111222' 
TCOON,ioos:station:TCOON:524:1,2009-04-01T17:54:00Z,29.8672,-93.9310,0.0,3.6,99.0,5.3,'11111222,11111222,11111222' 
TCOON,ioos:station:TCOON:524:1,2009-04-01T18:00:00Z,29.8672,-93.9310,0.0,3.2,109.0,5.3,'11111222,11111222,11111222' 
TCOON,ioos:station:TCOON:524:1,2009-04-01T18:06:00Z,29.8672,-93.9310,0.0,4.0,105.0,5.4,'11111222,11111222,11111222' 
TCOON,ioos:station:TCOON:524:1,2009-04-01T18:12:00Z,29.8672,-93.9310,0.0,3.7,108.0,5.3,'11111222,11111222,11111222' 
TCOON,ioos:station:TCOON:524:1,2009-04-01T18:18:00Z,29.8672,-93.9310,0.0,3.5,103.0,5.8,'11111222,11111222,11111222' 
TCOON,ioos:station:TCOON:524:1,2009-04-01T18:24:00Z,29.8672,-93.9310,0.0,2.8,110.0,4.4,'11111222,11111222,11111222' 
TCOON,ioos:station:TCOON:524:1,2009-04-01T18:30:00Z,29.8672,-93.9310,0.0,3.8,105.0,5.7,'11111222,11111222,11111222' 
TCOON,ioos:station:TCOON:524:1,2009-04-01T18:36:00Z,29.8672,-93.9310,0.0,4.5,103.0,6.1,'11111222,11111222,11111222' 
TCOON,ioos:station:TCOON:524:1,2009-04-01T18:42:00Z,29.8672,-93.9310,0.0,3.5,108.0,5.0,'11111222,11111222,11111222' 
TCOON,ioos:station:TCOON:524:1,2009-04-01T18:48:00Z,29.8672,-93.9310,0.0,4.5,102.0,6.1,'11111222,11111222,11111222' 
TCOON,ioos:station:TCOON:524:1,2009-04-01T18:54:00Z,29.8672,-93.9310,0.0,4.2,99.0,6.1,'11111222,11111222,11111222' 
TCOON,ioos:station:TCOON:524:1,2009-04-01T19:00:00Z,29.8672,-93.9310,0.0,3.7,104.0,4.8,'11111222,11111222,11111222' 
TCOON,ioos:station:TCOON:524:1,2009-04-01T19:06:00Z,29.8672,-93.9310,0.0,3.7,98.0,4.9,'11111222,11111222,11111222' 
TCOON,ioos:station:TCOON:524:1,2009-04-01T19:12:00Z,29.8672,-93.9310,0.0,4.1,108.0,5.5,'11111222,11111222,11111222' 
TCOON,ioos:station:TCOON:524:1,2009-04-01T19:18:00Z,29.8672,-93.9310,0.0,3.5,107.0,5.8,'11111222,11111222,11111222' 
TCOON,ioos:station:TCOON:524:1,2009-04-01T19:24:00Z,29.8672,-93.9310,0.0,3.4,108.0,4.9,'11111222,11111222,11111222' 
TCOON,ioos:station:TCOON:524:1,2009-04-01T19:30:00Z,29.8672,-93.9310,0.0,3.6,110.0,5.2,'11111222,11111222,11111222' 
TCOON,ioos:station:TCOON:524:1,2009-04-01T19:36:00Z,29.8672,-93.9310,0.0,3.8,110.0,5.5,'11111222,11111222,11111222' 
TCOON,ioos:station:TCOON:524:1,2009-04-01T19:42:00Z,29.8672,-93.9310,0.0,4.2,114.0,6.4,'11111222,11111222,11111222' 
TCOON,ioos:station:TCOON:524:1,2009-04-01T19:48:00Z,29.8672,-93.9310,0.0,3.0,107.0,5.2,'11111222,11111222,11111222' 
TCOON,ioos:station:TCOON:524:1,2009-04-01T19:54:00Z,29.8672,-93.9310,0.0,4.7,106.0,6.3,'11111222,11111222,11111222' 
TCOON,ioos:station:TCOON:524:1,2009-04-01T20:00:00Z,29.8672,-93.9310,0.0,3.8,107.0,6.4,'11111222,11111222,11111222' 
TCOON,ioos:station:TCOON:524:1,2009-04-01T20:06:00Z,29.8672,-93.9310,0.0,3.6,113.0,5.5,'11111222,11111222,11111222' 
TCOON,ioos:station:TCOON:524:1,2009-04-01T20:12:00Z,29.8672,-93.9310,0.0,3.6,109.0,5.4,'11111222,11111222,11111222' 
TCOON,ioos:station:TCOON:524:1,2009-04-01T20:18:00Z,29.8672,-93.9310,0.0,4.1,105.0,5.9,'11111222,11111222,11111222' 
TCOON,ioos:station:TCOON:524:1,2009-04-01T20:24:00Z,29.8672,-93.9310,0.0,4.5,108.0,7.3,'11111222,11111222,11111222' 
TCOON,ioos:station:TCOON:524:1,2009-04-01T20:30:00Z,29.8672,-93.9310,0.0,4.1,113.0,6.3,'11111222,11111222,11111222' 
TCOON,ioos:station:TCOON:524:1,2009-04-01T20:36:00Z,29.8672,-93.9310,0.0,4.4,114.0,6.6,'11111222,11111222,11111222' 
TCOON,ioos:station:TCOON:524:1,2009-04-01T20:42:00Z,29.8672,-93.9310,0.0,3.7,115.0,5.5,'11111222,11111222,11111222' 
TCOON,ioos:station:TCOON:524:1,2009-04-01T20:48:00Z,29.8672,-93.9310,0.0,3.9,114.0,7.3,'11111222,11111222,11111222' 
TCOON,ioos:station:TCOON:524:1,2009-04-01T20:54:00Z,29.8672,-93.9310,0.0,4.0,109.0,5.4,'11111222,11111222,11111222' 
TCOON,ioos:station:TCOON:524:1,2009-04-01T21:00:00Z,29.8672,-93.9310,0.0,4.0,113.0,6.2,'11111222,11111222,11111222' 
TCOON,ioos:station:TCOON:524:1,2009-04-01T21:06:00Z,29.8672,-93.9310,0.0,3.8,112.0,6.5,'11111222,11111222,11111222' 
TCOON,ioos:station:TCOON:524:1,2009-04-01T21:12:00Z,29.8672,-93.9310,0.0,3.5,107.0,5.2,'11111222,11111222,11111222' 
TCOON,ioos:station:TCOON:524:1,2009-04-01T21:18:00Z,29.8672,-93.9310,0.0,3.9,108.0,6.1,'11111222,11111222,11111222' 
TCOON,ioos:station:TCOON:524:1,2009-04-01T21:24:00Z,29.8672,-93.9310,0.0,4.3,106.0,6.2,'11111222,11111222,11111222' 